This is the latest recevied weather packets stored in our database for station/object KD0ISH. If no packets are shown the sender has not sent any weather packets the latest 10 day(s).
| Time | Temp. | Humidity | Pressure | Rain* | Wind** | Luminosity | Snow |
|---|---|---|---|---|---|---|---|
| 1778070722 | 6.67° C | 99% | 1018.4 hPa | 0 mm | - | 39 W/m² | - |
| 1778070418 | 6.67° C | 99% | 1018.5 hPa | 0 mm | - | 36 W/m² | - |
| 1778070116 | 6.67° C | 99% | 1018.5 hPa | 0 mm | - | 23 W/m² | - |
| 1778069813 | 6.67° C | 99% | 1018.4 hPa | 0 mm | - | 15 W/m² | - |
| 1778069509 | 6.67° C | 99% | 1018.5 hPa | 0 mm | - | 11 W/m² | - |
| 1778069207 | 6.67° C | 99% | 1018.7 hPa | 0 mm | - | 9 W/m² | - |
| 1778068904 | 6.67° C | 99% | 1018.5 hPa | 0 mm | - | 6 W/m² | - |
| 1778068603 | 6.67° C | 99% | 1018.4 hPa | 0 mm | - | 6 W/m² | - |
| 1778068300 | 6.67° C | 99% | 1018.3 hPa | 0 mm | - | 6 W/m² | - |
| 1778067997 | 6.67° C | 99% | 1018.3 hPa | 0 mm | - | 3 W/m² | - |
| 1778067695 | 6.67° C | 99% | 1018.1 hPa | 0 mm | - | 3 W/m² | - |
| 1778067394 | 6.67° C | 99% | 1018.4 hPa | 0 mm | - | 2 W/m² | - |
| 1778067090 | 6.67° C | 99% | 1018.3 hPa | 0 mm | - | 0 W/m² | - |
| 1778066786 | 6.67° C | 99% | 1018.2 hPa | 0 mm | - | 0 W/m² | - |
| 1778066484 | 6.67° C | 99% | 1018.4 hPa | 0 mm | - | 0 W/m² | - |
| 1778066182 | 6.67° C | 99% | 1018.5 hPa | 0 mm | - | 0 W/m² | - |
| 1778065879 | 6.67° C | 99% | 1018.3 hPa | 0 mm | - | 0 W/m² | - |
| 1778065577 | 6.67° C | 99% | 1018.2 hPa | 0 mm | - | 0 W/m² | - |
| 1778065274 | 6.67° C | 99% | 1017.8 hPa | 0 mm | - | 0 W/m² | - |
| 1778064970 | 7.22° C | 99% | 1017.5 hPa | 0 mm | - | 0 W/m² | - |
| 1778064667 | 7.22° C | 99% | 1017.5 hPa | 0 mm | - | 0 W/m² | - |
| 1778064366 | 7.22° C | 99% | 1017.1 hPa | 0 mm | - | 0 W/m² | - |
| 1778064063 | 7.22° C | 99% | 1017.3 hPa | 0 mm | - | 0 W/m² | - |
| 1778063760 | 7.22° C | 99% | 1017.3 hPa | 0 mm | - | 0 W/m² | - |
| 1778063456 | 7.22° C | 99% | 1017.4 hPa | 0 mm | - | 0 W/m² | - |
* Rain latest hour (hover to see other rain measurements)
** Current wind speed in m/s (hover to see current wind gust speed)